Weather History for KBKF - December, 2012

Change the Weather History Date:

Friday, December 7, 2012

  Actual Average Record
Temperature  
Mean Temperature 40 °F -  
Max Temperature 51 °F 44 °F 64 °F (2008)
Min Temperature 26 °F 21 °F -13 °F (2005)
Degree Days  
Heating Degree Days 26    
Moisture  
Dew Point 21 °F    
Average Humidity 57    
Maximum Humidity 80    
Minimum Humidity 24    
Precipitation  
Precipitation 0.00 in - - ()
Sea Level Pressure  
Sea Level Pressure 29.84 in    
Wind  
Wind Speed 10 mph (SE)    
Max Wind Speed 21 mph    
Max Gust Speed 29 mph    
Averages and records for this station are not official NWS values.
T = Trace of Precipitation, MM = Missing Value Source: NWS Daily Summary

Daily Weather History Graph

Daily Weather History Graph

Search for Another Location

Airport or City:

Trip Planner

Search our weather history database for the weather conditions in past years. The results will help you decide how hot, cold, wet, or windy it might be!

Date:

Astronomy

Dec. 07, 2012 Rise Set
Actual Time 7:07 AM MST 4:34 PM MST
Civil Twilight 6:36 AM MST 5:04 PM MST
Nautical Twilight 6:03 AM MST 5:38 PM MST
Astronomical Twilight 5:30 AM MST 6:11 PM MST
Moon 12:29 AM MST (12/7) 12:32 PM MST (12/7)
Length of Visible Light 10h 27m
Length of Day
9h 27m
Last Quarter, 38% of the Moon is Illuminated
Dec 7
Last Quarter
Dec 13
New
Dec 19
First Quarter
Dec 28
Full
Jan 4
Last Quarter

Hourly Weather History & Observations

Time (MST) Temp. Windchill Dew Point Humidity Pressure Visibility Wind Dir Wind Speed Gust Speed Precip Events Conditions
12:55 AM 32.0 °F 24.2 °F 26.6 °F 80% 29.81 in 25.0 mi SSW 9.2 mph - N/A   Scattered Clouds
1:55 AM 32.0 °F 23.6 °F 24.8 °F 75% 29.79 in 25.0 mi SSW 10.4 mph - N/A   Mostly Cloudy
2:55 AM 32.0 °F 25.6 °F 24.8 °F 75% 29.78 in 25.0 mi SSW 6.9 mph - N/A   Mostly Cloudy
3:55 AM 32.0 °F 27.5 °F 23.0 °F 69% 29.76 in 25.0 mi SW 4.6 mph - N/A   Mostly Cloudy
4:55 AM 32.0 °F 21.6 °F 23.0 °F 69% 29.77 in 25.0 mi SSW 15.0 mph - N/A   Mostly Cloudy
5:55 AM 28.4 °F - 23.0 °F 80% 29.82 in 25.0 mi SSW 2.3 mph - N/A   Mostly Cloudy
6:55 AM 30.2 °F 25.4 °F 21.2 °F 69% 29.83 in 70.0 mi SE 4.6 mph - N/A   Mostly Cloudy
7:55 AM 37.4 °F 32.8 °F 21.2 °F 52% 29.81 in 70.0 mi East 5.8 mph - N/A   Mostly Cloudy
8:55 AM 41.0 °F 36.4 °F 21.2 °F 45% 29.83 in 70.0 mi NW 6.9 mph - N/A   Mostly Cloudy
9:55 AM 48.2 °F - 17.6 °F 30% 29.81 in 70.0 mi NW 11.5 mph - N/A   Mostly Cloudy
10:55 AM 51.8 °F - 17.6 °F 26% 29.78 in 70.0 mi NNW 8.1 mph - N/A   Mostly Cloudy
11:55 AM 51.8 °F - 15.8 °F 24% 29.78 in 70.0 mi WSW 6.9 mph - N/A   Mostly Cloudy
12:55 PM 48.2 °F - 24.8 °F 40% 29.78 in 70.0 mi ENE 20.7 mph 28.8 mph N/A   Mostly Cloudy
1:55 PM 44.6 °F 36.4 °F 23.0 °F 43% 29.80 in 70.0 mi East 20.7 mph - N/A   Mostly Cloudy
2:55 PM 41.0 °F 32.2 °F 21.2 °F 45% 29.84 in 70.0 mi East 18.4 mph - N/A   Mostly Cloudy
3:55 PM 39.2 °F 31.6 °F 21.2 °F 49% 29.87 in 70.0 mi East 12.7 mph - N/A   Mostly Cloudy
4:55 PM 35.6 °F 27.5 °F 21.2 °F 56% 29.91 in 70.0 mi ESE 11.5 mph - N/A   Mostly Cloudy
5:55 PM 32.0 °F 24.2 °F 19.4 °F 60% 29.95 in 25.0 mi ESE 9.2 mph - N/A   Mostly Cloudy
6:55 PM 30.2 °F 22.6 °F 17.6 °F 60% 29.97 in 25.0 mi SE 8.1 mph - N/A   Mostly Cloudy
7:55 PM 32.0 °F 22.1 °F 19.4 °F 60% 29.94 in 25.0 mi SE 13.8 mph - N/A   Overcast
8:55 PM 32.0 °F 23.6 °F 19.4 °F 60% 29.94 in 25.0 mi SE 10.4 mph - N/A   Overcast
9:55 PM 30.2 °F 18.9 °F 19.4 °F 64% 29.88 in 25.0 mi SE 16.1 mph - N/A   Overcast
10:55 PM 28.4 °F 17.0 °F 17.6 °F 64% 29.85 in 25.0 mi SSE 15.0 mph - N/A   Mostly Cloudy
11:55 PM 26.6 °F 14.3 °F 19.4 °F 74% 29.84 in 25.0 mi SE 16.1 mph - N/A   Scattered Clouds